owner,sensor,date,latitude,longitude,vertical_datum,sea_water_practical_salinity,qcFlag 
NERRS,ioos:station:NOAA.NERRS:wkbfrwq:1,2015-12-01T00:45:00Z,30.4162,-87.8228,2.36,17.1,1111122 
NERRS,ioos:station:NOAA.NERRS:wkbfrwq:1,2015-12-01T01:45:00Z,30.4162,-87.8228,2.4,17.6,1111122 
NERRS,ioos:station:NOAA.NERRS:wkbfrwq:1,2015-12-01T02:45:00Z,30.4162,-87.8228,2.44,18.1,1111122 
NERRS,ioos:station:NOAA.NERRS:wkbfrwq:1,2015-12-01T04:45:00Z,30.4162,-87.8228,2.54,18.2,1111122 
NERRS,ioos:station:NOAA.NERRS:wkbfrwq:1,2015-12-01T05:45:00Z,30.4162,-87.8228,2.55,18.4,1111122 
NERRS,ioos:station:NOAA.NERRS:wkbfrwq:1,2015-12-01T07:45:00Z,30.4162,-87.8228,2.52,18.5,1111122 
NERRS,ioos:station:NOAA.NERRS:wkbfrwq:1,2015-12-01T08:45:00Z,30.4162,-87.8228,2.49,18.4,1111122 
NERRS,ioos:station:NOAA.NERRS:wkbfrwq:1,2015-12-01T10:45:00Z,30.4162,-87.8228,2.37,17.1,1111122 
NERRS,ioos:station:NOAA.NERRS:wkbfrwq:1,2015-12-01T11:45:00Z,30.4162,-87.8228,2.32,17.6,1111122 
NERRS,ioos:station:NOAA.NERRS:wkbfrwq:1,2015-12-01T12:45:00Z,30.4162,-87.8228,2.27,17.5,1111122 
NERRS,ioos:station:NOAA.NERRS:wkbfrwq:1,2015-12-01T13:45:00Z,30.4162,-87.8228,2.22,17.4,1111122 
NERRS,ioos:station:NOAA.NERRS:wkbfrwq:1,2015-12-01T15:45:00Z,30.4162,-87.8228,2.11,17.7,1111122 
NERRS,ioos:station:NOAA.NERRS:wkbfrwq:1,2015-12-01T16:45:00Z,30.4162,-87.8228,2.08,17.7,1111122 
NERRS,ioos:station:NOAA.NERRS:wkbfrwq:1,2015-12-01T18:45:00Z,30.4162,-87.8228,2.1,18.5,1111122 
NERRS,ioos:station:NOAA.NERRS:wkbfrwq:1,2015-12-01T19:45:00Z,30.4162,-87.8228,2.11,18.5,1111122 
NERRS,ioos:station:NOAA.NERRS:wkbfrwq:1,2015-12-01T20:45:00Z,30.4162,-87.8228,2.14,18.4,1111122 
NERRS,ioos:station:NOAA.NERRS:wkbfrwq:1,2015-12-01T21:45:00Z,30.4162,-87.8228,2.2,17.7,1111122 
NERRS,ioos:station:NOAA.NERRS:wkbfrwq:1,2015-12-01T22:45:00Z,30.4162,-87.8228,2.25,17.2,1111122 
NERRS,ioos:station:NOAA.NERRS:wkbfrwq:1,2015-12-01T23:45:00Z,30.4162,-87.8228,2.29,17.3,1111122 
NERRS,ioos:station:NOAA.NERRS:wkbfrwq:1,2015-12-02T00:45:00Z,30.4162,-87.8228,2.34,17.2,1111122 
NERRS,ioos:station:NOAA.NERRS:wkbfrwq:1,2015-12-02T02:45:00Z,30.4162,-87.8228,2.41,17.5,1111122 
NERRS,ioos:station:NOAA.NERRS:wkbfrwq:1,2015-12-02T03:45:00Z,30.4162,-87.8228,2.43,17.7,1111122 
NERRS,ioos:station:NOAA.NERRS:wkbfrwq:1,2015-12-02T04:45:00Z,30.4162,-87.8228,2.46,17.6,1111122 
NERRS,ioos:station:NOAA.NERRS:wkbfrwq:1,2015-12-02T05:45:00Z,30.4162,-87.8228,2.49,17.5,1111122 
NERRS,ioos:station:NOAA.NERRS:wkbfrwq:1,2015-12-02T07:45:00Z,30.4162,-87.8228,2.5,17.6,1111122 
NERRS,ioos:station:NOAA.NERRS:wkbfrwq:1,2015-12-02T08:45:00Z,30.4162,-87.8228,2.46,17.6,1111122 
NERRS,ioos:station:NOAA.NERRS:wkbfrwq:1,2015-12-02T10:45:00Z,30.4162,-87.8228,2.37,17.7,1111122 
NERRS,ioos:station:NOAA.NERRS:wkbfrwq:1,2015-12-02T11:45:00Z,30.4162,-87.8228,2.34,17.7,1111122 
NERRS,ioos:station:NOAA.NERRS:wkbfrwq:1,2015-12-02T12:45:00Z,30.4162,-87.8228,2.3,17.6,1111122 
NERRS,ioos:station:NOAA.NERRS:wkbfrwq:1,2015-12-02T13:45:00Z,30.4162,-87.8228,2.27,17.5,1111122 
NERRS,ioos:station:NOAA.NERRS:wkbfrwq:1,2015-12-02T14:45:00Z,30.4162,-87.8228,2.18,17.5,1111122 
NERRS,ioos:station:NOAA.NERRS:wkbfrwq:1,2015-12-02T15:45:00Z,30.4162,-87.8228,2.08,17.7,1111122 
NERRS,ioos:station:NOAA.NERRS:wkbfrwq:1,2015-12-02T16:45:00Z,30.4162,-87.8228,2.0,17.1,1111122 
NERRS,ioos:station:NOAA.NERRS:wkbfrwq:1,2015-12-02T17:45:00Z,30.4162,-87.8228,1.97,17.8,1111122 
NERRS,ioos:station:NOAA.NERRS:wkbfrwq:1,2015-12-02T18:45:00Z,30.4162,-87.8228,2.02,18.0,1111122 
NERRS,ioos:station:NOAA.NERRS:wkbfrwq:1,2015-12-02T19:45:00Z,30.4162,-87.8228,2.11,17.4,1111122 
NERRS,ioos:station:NOAA.NERRS:wkbfrwq:1,2015-12-02T20:45:00Z,30.4162,-87.8228,2.19,17.6,1111122 
NERRS,ioos:station:NOAA.NERRS:wkbfrwq:1,2015-12-02T21:45:00Z,30.4162,-87.8228,2.19,17.7,1111122 
NERRS,ioos:station:NOAA.NERRS:wkbfrwq:1,2015-12-02T22:45:00Z,30.4162,-87.8228,2.19,17.9,1111122 
NERRS,ioos:station:NOAA.NERRS:wkbfrwq:1,2015-12-02T23:45:00Z,30.4162,-87.8228,2.24,18.3,1111122 
NERRS,ioos:station:NOAA.NERRS:wkbfrwq:1,2015-12-03T00:45:00Z,30.4162,-87.8228,2.32,17.0,1111122 
NERRS,ioos:station:NOAA.NERRS:wkbfrwq:1,2015-12-03T01:45:00Z,30.4162,-87.8228,2.31,17.7,1111122 
NERRS,ioos:station:NOAA.NERRS:wkbfrwq:1,2015-12-03T02:45:00Z,30.4162,-87.8228,2.31,17.8,1111122 
NERRS,ioos:station:NOAA.NERRS:wkbfrwq:1,2015-12-03T04:45:00Z,30.4162,-87.8228,2.35,18.0,1111122 
NERRS,ioos:station:NOAA.NERRS:wkbfrwq:1,2015-12-03T05:45:00Z,30.4162,-87.8228,2.31,18.0,1111122 
NERRS,ioos:station:NOAA.NERRS:wkbfrwq:1,2015-12-03T07:45:00Z,30.4162,-87.8228,2.25,17.9,1111122 
NERRS,ioos:station:NOAA.NERRS:wkbfrwq:1,2015-12-03T08:45:00Z,30.4162,-87.8228,2.26,18.1,1111122 
NERRS,ioos:station:NOAA.NERRS:wkbfrwq:1,2015-12-03T10:45:00Z,30.4162,-87.8228,2.2,18.0,1111122 
NERRS,ioos:station:NOAA.NERRS:wkbfrwq:1,2015-12-03T11:45:00Z,30.4162,-87.8228,2.16,17.5,1111122 
NERRS,ioos:station:NOAA.NERRS:wkbfrwq:1,2015-12-03T12:45:00Z,30.4162,-87.8228,2.11,17.5,1111122 
NERRS,ioos:station:NOAA.NERRS:wkbfrwq:1,2015-12-03T13:45:00Z,30.4162,-87.8228,2.11,17.9,1111122 
NERRS,ioos:station:NOAA.NERRS:wkbfrwq:1,2015-12-03T14:45:00Z,30.4162,-87.8228,2.12,18.0,1111122 
NERRS,ioos:station:NOAA.NERRS:wkbfrwq:1,2015-12-03T15:45:00Z,30.4162,-87.8228,2.09,17.7,1111122 
NERRS,ioos:station:NOAA.NERRS:wkbfrwq:1,2015-12-03T16:45:00Z,30.4162,-87.8228,2.05,17.6,1111122 
NERRS,ioos:station:NOAA.NERRS:wkbfrwq:1,2015-12-03T17:45:00Z,30.4162,-87.8228,2.03,17.9,1111122 
NERRS,ioos:station:NOAA.NERRS:wkbfrwq:1,2015-12-03T18:45:00Z,30.4162,-87.8228,2.05,17.9,1111122 
NERRS,ioos:station:NOAA.NERRS:wkbfrwq:1,2015-12-03T20:45:00Z,30.4162,-87.8228,2.15,16.6,1111122 
NERRS,ioos:station:NOAA.NERRS:wkbfrwq:1,2015-12-03T21:45:00Z,30.4162,-87.8228,2.14,17.2,1111122 
NERRS,ioos:station:NOAA.NERRS:wkbfrwq:1,2015-12-03T22:45:00Z,30.4162,-87.8228,2.11,17.4,1111122 
NERRS,ioos:station:NOAA.NERRS:wkbfrwq:1,2015-12-03T23:45:00Z,30.4162,-87.8228,2.15,17.6,1111122 
NERRS,ioos:station:NOAA.NERRS:wkbfrwq:1,2015-12-04T00:45:00Z,30.4162,-87.8228,2.2,16.5,1111122 
NERRS,ioos:station:NOAA.NERRS:wkbfrwq:1,2015-12-04T02:45:00Z,30.4162,-87.8228,2.15,16.9,1111122 
NERRS,ioos:station:NOAA.NERRS:wkbfrwq:1,2015-12-04T03:45:00Z,30.4162,-87.8228,2.09,16.7,1111122 
NERRS,ioos:station:NOAA.NERRS:wkbfrwq:1,2015-12-04T04:45:00Z,30.4162,-87.8228,2.07,17.3,1111122 
NERRS,ioos:station:NOAA.NERRS:wkbfrwq:1,2015-12-04T05:45:00Z,30.4162,-87.8228,2.09,17.7,1111122 
NERRS,ioos:station:NOAA.NERRS:wkbfrwq:1,2015-12-04T07:45:00Z,30.4162,-87.8228,2.11,17.3,1111122 
NERRS,ioos:station:NOAA.NERRS:wkbfrwq:1,2015-12-04T08:45:00Z,30.4162,-87.8228,2.11,17.3,1111122 
NERRS,ioos:station:NOAA.NERRS:wkbfrwq:1,2015-12-04T09:45:00Z,30.4162,-87.8228,2.11,17.6,1111122 
NERRS,ioos:station:NOAA.NERRS:wkbfrwq:1,2015-12-04T11:45:00Z,30.4162,-87.8228,2.14,16.8,1111122 
NERRS,ioos:station:NOAA.NERRS:wkbfrwq:1,2015-12-04T12:45:00Z,30.4162,-87.8228,2.11,16.6,1111122 
NERRS,ioos:station:NOAA.NERRS:wkbfrwq:1,2015-12-04T13:45:00Z,30.4162,-87.8228,2.06,16.4,1111122 
NERRS,ioos:station:NOAA.NERRS:wkbfrwq:1,2015-12-04T15:45:00Z,30.4162,-87.8228,2.05,17.1,1111122 
NERRS,ioos:station:NOAA.NERRS:wkbfrwq:1,2015-12-04T16:45:00Z,30.4162,-87.8228,2.09,16.1,1111122 
NERRS,ioos:station:NOAA.NERRS:wkbfrwq:1,2015-12-04T17:45:00Z,30.4162,-87.8228,2.12,15.7,1111122 
NERRS,ioos:station:NOAA.NERRS:wkbfrwq:1,2015-12-05T06:45:00Z,30.4162,-87.8228,2.17,16.1,1111122 
NERRS,ioos:station:NOAA.NERRS:wkbfrwq:1,2015-12-05T12:45:00Z,30.4162,-87.8228,2.13,16.4,1111122 
NERRS,ioos:station:NOAA.NERRS:wkbfrwq:1,2015-12-05T18:45:00Z,30.4162,-87.8228,2.09,16.4,1111122 
NERRS,ioos:station:NOAA.NERRS:wkbfrwq:1,2015-12-06T00:45:00Z,30.4162,-87.8228,2.31,15.4,1111122 
NERRS,ioos:station:NOAA.NERRS:wkbfrwq:1,2015-12-06T06:45:00Z,30.4162,-87.8228,2.2,16.6,1111122 
NERRS,ioos:station:NOAA.NERRS:wkbfrwq:1,2015-12-06T10:45:00Z,30.4162,-87.8228,2.13,16.8,1111122 
NERRS,ioos:station:NOAA.NERRS:wkbfrwq:1,2015-12-06T16:45:00Z,30.4162,-87.8228,2.13,16.7,1111122 
NERRS,ioos:station:NOAA.NERRS:wkbfrwq:1,2015-12-06T17:45:00Z,30.4162,-87.8228,2.18,16.2,1111122 
NERRS,ioos:station:NOAA.NERRS:wkbfrwq:1,2015-12-06T18:45:00Z,30.4162,-87.8228,2.22,16.4,1111122 
NERRS,ioos:station:NOAA.NERRS:wkbfrwq:1,2015-12-06T19:45:00Z,30.4162,-87.8228,2.24,16.9,1111122 
NERRS,ioos:station:NOAA.NERRS:wkbfrwq:1,2015-12-06T20:45:00Z,30.4162,-87.8228,2.23,16.8,1111122 
NERRS,ioos:station:NOAA.NERRS:wkbfrwq:1,2015-12-06T21:45:00Z,30.4162,-87.8228,2.23,16.7,1111122 
NERRS,ioos:station:NOAA.NERRS:wkbfrwq:1,2015-12-06T22:45:00Z,30.4162,-87.8228,2.28,16.0,1111122 
NERRS,ioos:station:NOAA.NERRS:wkbfrwq:1,2015-12-06T23:45:00Z,30.4162,-87.8228,2.34,15.0,1111122 
NERRS,ioos:station:NOAA.NERRS:wkbfrwq:1,2015-12-07T00:45:00Z,30.4162,-87.8228,2.35,15.7,1111122 
NERRS,ioos:station:NOAA.NERRS:wkbfrwq:1,2015-12-07T01:45:00Z,30.4162,-87.8228,2.35,16.1,1111122 
NERRS,ioos:station:NOAA.NERRS:wkbfrwq:1,2015-12-07T04:45:00Z,30.4162,-87.8228,2.28,16.6,1111122 
NERRS,ioos:station:NOAA.NERRS:wkbfrwq:1,2015-12-07T05:45:00Z,30.4162,-87.8228,2.23,17.0,1111122 
NERRS,ioos:station:NOAA.NERRS:wkbfrwq:1,2015-12-07T06:45:00Z,30.4162,-87.8228,2.18,16.6,1111122 
NERRS,ioos:station:NOAA.NERRS:wkbfrwq:1,2015-12-07T08:45:00Z,30.4162,-87.8228,2.08,16.4,1111122 
NERRS,ioos:station:NOAA.NERRS:wkbfrwq:1,2015-12-07T09:45:00Z,30.4162,-87.8228,2.02,16.3,1111122 
NERRS,ioos:station:NOAA.NERRS:wkbfrwq:1,2015-12-07T10:45:00Z,30.4162,-87.8228,1.99,16.2,1111122 
NERRS,ioos:station:NOAA.NERRS:wkbfrwq:1,2015-12-07T11:45:00Z,30.4162,-87.8228,1.98,16.8,1111122 
NERRS,ioos:station:NOAA.NERRS:wkbfrwq:1,2015-12-07T12:45:00Z,30.4162,-87.8228,1.99,17.0,1111122 
NERRS,ioos:station:NOAA.NERRS:wkbfrwq:1,2015-12-07T13:45:00Z,30.4162,-87.8228,2.0,16.9,1111122 
NERRS,ioos:station:NOAA.NERRS:wkbfrwq:1,2015-12-07T14:45:00Z,30.4162,-87.8228,2.03,16.7,1111122 
NERRS,ioos:station:NOAA.NERRS:wkbfrwq:1,2015-12-07T15:45:00Z,30.4162,-87.8228,2.09,16.5,1111122 
NERRS,ioos:station:NOAA.NERRS:wkbfrwq:1,2015-12-07T16:45:00Z,30.4162,-87.8228,2.14,15.9,1111122 
NERRS,ioos:station:NOAA.NERRS:wkbfrwq:1,2015-12-07T17:45:00Z,30.4162,-87.8228,2.18,16.0,1111122 
NERRS,ioos:station:NOAA.NERRS:wkbfrwq:1,2015-12-07T18:45:00Z,30.4162,-87.8228,2.19,16.3,1111122 
NERRS,ioos:station:NOAA.NERRS:wkbfrwq:1,2015-12-07T20:45:00Z,30.4162,-87.8228,2.21,16.4,1111122 
NERRS,ioos:station:NOAA.NERRS:wkbfrwq:1,2015-12-07T21:45:00Z,30.4162,-87.8228,2.25,16.5,1111122 
NERRS,ioos:station:NOAA.NERRS:wkbfrwq:1,2015-12-07T22:45:00Z,30.4162,-87.8228,2.32,16.0,1111122 
NERRS,ioos:station:NOAA.NERRS:wkbfrwq:1,2015-12-07T23:45:00Z,30.4162,-87.8228,2.36,16.4,1111122 
NERRS,ioos:station:NOAA.NERRS:wkbfrwq:1,2015-12-08T01:45:00Z,30.4162,-87.8228,2.39,16.8,1111122 
NERRS,ioos:station:NOAA.NERRS:wkbfrwq:1,2015-12-08T02:45:00Z,30.4162,-87.8228,2.38,16.9,1111122 
NERRS,ioos:station:NOAA.NERRS:wkbfrwq:1,2015-12-08T03:45:00Z,30.4162,-87.8228,2.35,17.0,1111122 
NERRS,ioos:station:NOAA.NERRS:wkbfrwq:1,2015-12-08T06:45:00Z,30.4162,-87.8228,2.17,16.6,1111122 
NERRS,ioos:station:NOAA.NERRS:wkbfrwq:1,2015-12-08T15:45:00Z,30.4162,-87.8228,1.98,16.7,1111122 
NERRS,ioos:station:NOAA.NERRS:wkbfrwq:1,2015-12-08T16:45:00Z,30.4162,-87.8228,2.05,15.9,1111122 
NERRS,ioos:station:NOAA.NERRS:wkbfrwq:1,2015-12-08T17:45:00Z,30.4162,-87.8228,2.08,16.3,1111122 
NERRS,ioos:station:NOAA.NERRS:wkbfrwq:1,2015-12-08T19:45:00Z,30.4162,-87.8228,2.13,16.7,1111122 
NERRS,ioos:station:NOAA.NERRS:wkbfrwq:1,2015-12-08T20:45:00Z,30.4162,-87.8228,2.18,17.0,1111122 
NERRS,ioos:station:NOAA.NERRS:wkbfrwq:1,2015-12-08T22:45:00Z,30.4162,-87.8228,2.26,16.9,1111122 
NERRS,ioos:station:NOAA.NERRS:wkbfrwq:1,2015-12-09T09:45:00Z,30.4162,-87.8228,2.06,16.4,1111122 
NERRS,ioos:station:NOAA.NERRS:wkbfrwq:1,2015-12-09T15:45:00Z,30.4162,-87.8228,2.0,17.1,1111122 
NERRS,ioos:station:NOAA.NERRS:wkbfrwq:1,2015-12-09T16:45:00Z,30.4162,-87.8228,2.05,17.0,1111122 
NERRS,ioos:station:NOAA.NERRS:wkbfrwq:1,2015-12-09T17:45:00Z,30.4162,-87.8228,2.1,16.7,1111122 
NERRS,ioos:station:NOAA.NERRS:wkbfrwq:1,2015-12-09T18:45:00Z,30.4162,-87.8228,2.14,17.0,1111122 
NERRS,ioos:station:NOAA.NERRS:wkbfrwq:1,2015-12-09T19:45:00Z,30.4162,-87.8228,2.19,16.4,1111122 
NERRS,ioos:station:NOAA.NERRS:wkbfrwq:1,2015-12-09T20:45:00Z,30.4162,-87.8228,2.23,15.8,1111122 
NERRS,ioos:station:NOAA.NERRS:wkbfrwq:1,2015-12-09T21:45:00Z,30.4162,-87.8228,2.27,15.9,1111122 
NERRS,ioos:station:NOAA.NERRS:wkbfrwq:1,2015-12-09T22:45:00Z,30.4162,-87.8228,2.32,15.6,1111122 
NERRS,ioos:station:NOAA.NERRS:wkbfrwq:1,2015-12-09T23:45:00Z,30.4162,-87.8228,2.39,16.0,1111122 
NERRS,ioos:station:NOAA.NERRS:wkbfrwq:1,2015-12-10T01:45:00Z,30.4162,-87.8228,2.45,15.5,1111122 
NERRS,ioos:station:NOAA.NERRS:wkbfrwq:1,2015-12-10T02:45:00Z,30.4162,-87.8228,2.46,15.7,1111122 
NERRS,ioos:station:NOAA.NERRS:wkbfrwq:1,2015-12-10T03:45:00Z,30.4162,-87.8228,2.45,16.4,1111122 
NERRS,ioos:station:NOAA.NERRS:wkbfrwq:1,2015-12-10T04:45:00Z,30.4162,-87.8228,2.41,16.5,1111122 
NERRS,ioos:station:NOAA.NERRS:wkbfrwq:1,2015-12-10T05:45:00Z,30.4162,-87.8228,2.34,16.8,1111122 
NERRS,ioos:station:NOAA.NERRS:wkbfrwq:1,2015-12-10T06:45:00Z,30.4162,-87.8228,2.26,16.1,1111122 
NERRS,ioos:station:NOAA.NERRS:wkbfrwq:1,2015-12-10T07:45:00Z,30.4162,-87.8228,2.21,15.5,1111122 
NERRS,ioos:station:NOAA.NERRS:wkbfrwq:1,2015-12-10T08:45:00Z,30.4162,-87.8228,2.13,16.1,1111122 
NERRS,ioos:station:NOAA.NERRS:wkbfrwq:1,2015-12-10T09:45:00Z,30.4162,-87.8228,2.05,16.0,1111122 
NERRS,ioos:station:NOAA.NERRS:wkbfrwq:1,2015-12-10T10:45:00Z,30.4162,-87.8228,1.98,15.6,1111122 
NERRS,ioos:station:NOAA.NERRS:wkbfrwq:1,2015-12-10T11:45:00Z,30.4162,-87.8228,1.94,15.6,1111122 
NERRS,ioos:station:NOAA.NERRS:wkbfrwq:1,2015-12-10T12:45:00Z,30.4162,-87.8228,1.9,16.2,1111122 
NERRS,ioos:station:NOAA.NERRS:wkbfrwq:1,2015-12-10T13:45:00Z,30.4162,-87.8228,1.88,16.7,1111122 
NERRS,ioos:station:NOAA.NERRS:wkbfrwq:1,2015-12-10T14:45:00Z,30.4162,-87.8228,1.88,17.1,1111122 
NERRS,ioos:station:NOAA.NERRS:wkbfrwq:1,2015-12-10T16:45:00Z,30.4162,-87.8228,1.96,17.2,1111122 
NERRS,ioos:station:NOAA.NERRS:wkbfrwq:1,2015-12-10T17:45:00Z,30.4162,-87.8228,2.03,16.4,1111122 
NERRS,ioos:station:NOAA.NERRS:wkbfrwq:1,2015-12-10T18:45:00Z,30.4162,-87.8228,2.09,16.8,1111122 
NERRS,ioos:station:NOAA.NERRS:wkbfrwq:1,2015-12-10T19:45:00Z,30.4162,-87.8228,2.14,16.4,1111122 
NERRS,ioos:station:NOAA.NERRS:wkbfrwq:1,2015-12-10T20:45:00Z,30.4162,-87.8228,2.18,16.3,1111122 
NERRS,ioos:station:NOAA.NERRS:wkbfrwq:1,2015-12-10T21:45:00Z,30.4162,-87.8228,2.23,16.5,1111122 
NERRS,ioos:station:NOAA.NERRS:wkbfrwq:1,2015-12-10T22:45:00Z,30.4162,-87.8228,2.31,16.7,1111122 
NERRS,ioos:station:NOAA.NERRS:wkbfrwq:1,2015-12-10T23:45:00Z,30.4162,-87.8228,2.39,15.6,1111122 
NERRS,ioos:station:NOAA.NERRS:wkbfrwq:1,2015-12-11T00:45:00Z,30.4162,-87.8228,2.44,15.7,1111122 
NERRS,ioos:station:NOAA.NERRS:wkbfrwq:1,2015-12-11T01:45:00Z,30.4162,-87.8228,2.5,15.7,1111122 
NERRS,ioos:station:NOAA.NERRS:wkbfrwq:1,2015-12-11T02:45:00Z,30.4162,-87.8228,2.55,15.9,1111122 
NERRS,ioos:station:NOAA.NERRS:wkbfrwq:1,2015-12-11T03:45:00Z,30.4162,-87.8228,2.59,15.9,1111122 
NERRS,ioos:station:NOAA.NERRS:wkbfrwq:1,2015-12-11T04:45:00Z,30.4162,-87.8228,2.58,16.2,1111122 
NERRS,ioos:station:NOAA.NERRS:wkbfrwq:1,2015-12-11T06:45:00Z,30.4162,-87.8228,2.45,15.5,1111122 
NERRS,ioos:station:NOAA.NERRS:wkbfrwq:1,2015-12-11T07:45:00Z,30.4162,-87.8228,2.38,15.8,1111122 
NERRS,ioos:station:NOAA.NERRS:wkbfrwq:1,2015-12-11T08:45:00Z,30.4162,-87.8228,2.31,15.7,1111122 
NERRS,ioos:station:NOAA.NERRS:wkbfrwq:1,2015-12-11T09:45:00Z,30.4162,-87.8228,2.23,15.6,1111122 
NERRS,ioos:station:NOAA.NERRS:wkbfrwq:1,2015-12-11T10:45:00Z,30.4162,-87.8228,2.16,15.5,1111122 
NERRS,ioos:station:NOAA.NERRS:wkbfrwq:1,2015-12-11T11:45:00Z,30.4162,-87.8228,2.1,15.5,1111122 
NERRS,ioos:station:NOAA.NERRS:wkbfrwq:1,2015-12-11T12:45:00Z,30.4162,-87.8228,2.04,15.7,1111122 
NERRS,ioos:station:NOAA.NERRS:wkbfrwq:1,2015-12-11T13:45:00Z,30.4162,-87.8228,2.0,15.5,1111122 
NERRS,ioos:station:NOAA.NERRS:wkbfrwq:1,2015-12-11T14:45:00Z,30.4162,-87.8228,1.99,16.2,1111122 
NERRS,ioos:station:NOAA.NERRS:wkbfrwq:1,2015-12-11T15:45:00Z,30.4162,-87.8228,1.99,16.0,1111122 
NERRS,ioos:station:NOAA.NERRS:wkbfrwq:1,2015-12-11T16:45:00Z,30.4162,-87.8228,2.0,15.9,1111122 
NERRS,ioos:station:NOAA.NERRS:wkbfrwq:1,2015-12-11T17:45:00Z,30.4162,-87.8228,2.06,15.7,1111122 
NERRS,ioos:station:NOAA.NERRS:wkbfrwq:1,2015-12-11T18:45:00Z,30.4162,-87.8228,2.13,15.1,1111122 
NERRS,ioos:station:NOAA.NERRS:wkbfrwq:1,2015-12-11T19:45:00Z,30.4162,-87.8228,2.18,14.3,1111122 
NERRS,ioos:station:NOAA.NERRS:wkbfrwq:1,2015-12-11T20:45:00Z,30.4162,-87.8228,2.22,14.8,1111122 
NERRS,ioos:station:NOAA.NERRS:wkbfrwq:1,2015-12-11T21:45:00Z,30.4162,-87.8228,2.27,15.3,1111122 
NERRS,ioos:station:NOAA.NERRS:wkbfrwq:1,2015-12-11T22:45:00Z,30.4162,-87.8228,2.34,15.0,1111122 
NERRS,ioos:station:NOAA.NERRS:wkbfrwq:1,2015-12-11T23:45:00Z,30.4162,-87.8228,2.4,14.9,1111122 
NERRS,ioos:station:NOAA.NERRS:wkbfrwq:1,2015-12-12T00:45:00Z,30.4162,-87.8228,2.47,14.9,1111122 
NERRS,ioos:station:NOAA.NERRS:wkbfrwq:1,2015-12-12T01:45:00Z,30.4162,-87.8228,2.52,15.5,1111122 
NERRS,ioos:station:NOAA.NERRS:wkbfrwq:1,2015-12-12T02:45:00Z,30.4162,-87.8228,2.58,15.7,1111122 
NERRS,ioos:station:NOAA.NERRS:wkbfrwq:1,2015-12-12T03:45:00Z,30.4162,-87.8228,2.61,15.7,1111122 
NERRS,ioos:station:NOAA.NERRS:wkbfrwq:1,2015-12-12T04:45:00Z,30.4162,-87.8228,2.61,15.4,1111122 
NERRS,ioos:station:NOAA.NERRS:wkbfrwq:1,2015-12-12T05:45:00Z,30.4162,-87.8228,2.57,15.5,1111122 
NERRS,ioos:station:NOAA.NERRS:wkbfrwq:1,2015-12-12T06:45:00Z,30.4162,-87.8228,2.51,15.5,1111122 
NERRS,ioos:station:NOAA.NERRS:wkbfrwq:1,2015-12-12T07:45:00Z,30.4162,-87.8228,2.42,15.2,1111122 
NERRS,ioos:station:NOAA.NERRS:wkbfrwq:1,2015-12-12T08:45:00Z,30.4162,-87.8228,2.34,14.8,1111122 
NERRS,ioos:station:NOAA.NERRS:wkbfrwq:1,2015-12-12T09:45:00Z,30.4162,-87.8228,2.25,15.2,1111122 
NERRS,ioos:station:NOAA.NERRS:wkbfrwq:1,2015-12-12T10:45:00Z,30.4162,-87.8228,2.18,14.7,1111122 
NERRS,ioos:station:NOAA.NERRS:wkbfrwq:1,2015-12-12T11:45:00Z,30.4162,-87.8228,2.11,14.5,1111122 
NERRS,ioos:station:NOAA.NERRS:wkbfrwq:1,2015-12-12T12:45:00Z,30.4162,-87.8228,2.05,14.6,1111122 
NERRS,ioos:station:NOAA.NERRS:wkbfrwq:1,2015-12-12T13:45:00Z,30.4162,-87.8228,2.01,14.5,1111122 
NERRS,ioos:station:NOAA.NERRS:wkbfrwq:1,2015-12-12T14:45:00Z,30.4162,-87.8228,1.99,15.4,1111122 
NERRS,ioos:station:NOAA.NERRS:wkbfrwq:1,2015-12-12T15:45:00Z,30.4162,-87.8228,2.0,15.6,1111122 
NERRS,ioos:station:NOAA.NERRS:wkbfrwq:1,2015-12-12T16:45:00Z,30.4162,-87.8228,2.02,15.5,1111122 
NERRS,ioos:station:NOAA.NERRS:wkbfrwq:1,2015-12-12T17:45:00Z,30.4162,-87.8228,2.02,14.7,1111122 
NERRS,ioos:station:NOAA.NERRS:wkbfrwq:1,2015-12-12T18:45:00Z,30.4162,-87.8228,2.05,14.8,1111122 
NERRS,ioos:station:NOAA.NERRS:wkbfrwq:1,2015-12-12T19:45:00Z,30.4162,-87.8228,2.12,14.8,1111122 
NERRS,ioos:station:NOAA.NERRS:wkbfrwq:1,2015-12-12T20:45:00Z,30.4162,-87.8228,2.19,12.9,1111122 
NERRS,ioos:station:NOAA.NERRS:wkbfrwq:1,2015-12-12T21:45:00Z,30.4162,-87.8228,2.24,13.2,1111122 
NERRS,ioos:station:NOAA.NERRS:wkbfrwq:1,2015-12-12T22:45:00Z,30.4162,-87.8228,2.27,13.6,1111122 
NERRS,ioos:station:NOAA.NERRS:wkbfrwq:1,2015-12-12T23:45:00Z,30.4162,-87.8228,2.33,13.9,1111122 
NERRS,ioos:station:NOAA.NERRS:wkbfrwq:1,2015-12-13T00:45:00Z,30.4162,-87.8228,2.39,13.8,1111122 
NERRS,ioos:station:NOAA.NERRS:wkbfrwq:1,2015-12-13T01:45:00Z,30.4162,-87.8228,2.44,14.1,1111122 
NERRS,ioos:station:NOAA.NERRS:wkbfrwq:1,2015-12-13T02:45:00Z,30.4162,-87.8228,2.5,14.2,1111122 
NERRS,ioos:station:NOAA.NERRS:wkbfrwq:1,2015-12-13T03:45:00Z,30.4162,-87.8228,2.54,14.5,1111122 
NERRS,ioos:station:NOAA.NERRS:wkbfrwq:1,2015-12-13T04:45:00Z,30.4162,-87.8228,2.58,14.5,1111122 
NERRS,ioos:station:NOAA.NERRS:wkbfrwq:1,2015-12-13T05:45:00Z,30.4162,-87.8228,2.6,14.7,1111122 
NERRS,ioos:station:NOAA.NERRS:wkbfrwq:1,2015-12-13T06:45:00Z,30.4162,-87.8228,2.57,14.7,1111122 
NERRS,ioos:station:NOAA.NERRS:wkbfrwq:1,2015-12-13T07:45:00Z,30.4162,-87.8228,2.49,14.2,1111122 
NERRS,ioos:station:NOAA.NERRS:wkbfrwq:1,2015-12-13T08:45:00Z,30.4162,-87.8228,2.41,14.6,1111122 
NERRS,ioos:station:NOAA.NERRS:wkbfrwq:1,2015-12-13T09:45:00Z,30.4162,-87.8228,2.35,14.3,1111122 
NERRS,ioos:station:NOAA.NERRS:wkbfrwq:1,2015-12-13T10:45:00Z,30.4162,-87.8228,2.29,13.9,1111122 
NERRS,ioos:station:NOAA.NERRS:wkbfrwq:1,2015-12-13T11:45:00Z,30.4162,-87.8228,2.22,13.8,1111122 
NERRS,ioos:station:NOAA.NERRS:wkbfrwq:1,2015-12-13T12:45:00Z,30.4162,-87.8228,2.16,13.7,1111122 
NERRS,ioos:station:NOAA.NERRS:wkbfrwq:1,2015-12-13T13:45:00Z,30.4162,-87.8228,2.12,14.3,1111122 
NERRS,ioos:station:NOAA.NERRS:wkbfrwq:1,2015-12-13T14:45:00Z,30.4162,-87.8228,2.1,14.9,1111122 
NERRS,ioos:station:NOAA.NERRS:wkbfrwq:1,2015-12-13T15:45:00Z,30.4162,-87.8228,2.1,14.7,1111122 
NERRS,ioos:station:NOAA.NERRS:wkbfrwq:1,2015-12-13T16:45:00Z,30.4162,-87.8228,2.05,14.3,1111122 
NERRS,ioos:station:NOAA.NERRS:wkbfrwq:1,2015-12-13T17:45:00Z,30.4162,-87.8228,2.05,14.6,1111122 
NERRS,ioos:station:NOAA.NERRS:wkbfrwq:1,2015-12-13T18:45:00Z,30.4162,-87.8228,2.07,14.6,1111122 
NERRS,ioos:station:NOAA.NERRS:wkbfrwq:1,2015-12-13T19:45:00Z,30.4162,-87.8228,2.15,13.7,1111122 
NERRS,ioos:station:NOAA.NERRS:wkbfrwq:1,2015-12-13T20:45:00Z,30.4162,-87.8228,2.24,12.3,1111122 
NERRS,ioos:station:NOAA.NERRS:wkbfrwq:1,2015-12-13T21:45:00Z,30.4162,-87.8228,2.31,13.0,1111122 
NERRS,ioos:station:NOAA.NERRS:wkbfrwq:1,2015-12-13T22:45:00Z,30.4162,-87.8228,2.35,13.8,1111122 
NERRS,ioos:station:NOAA.NERRS:wkbfrwq:1,2015-12-13T23:45:00Z,30.4162,-87.8228,2.41,14.2,1111122 
NERRS,ioos:station:NOAA.NERRS:wkbfrwq:1,2015-12-14T00:45:00Z,30.4162,-87.8228,2.47,14.0,1111122 
NERRS,ioos:station:NOAA.NERRS:wkbfrwq:1,2015-12-14T01:45:00Z,30.4162,-87.8228,2.54,14.4,1111122 
NERRS,ioos:station:NOAA.NERRS:wkbfrwq:1,2015-12-14T02:45:00Z,30.4162,-87.8228,2.61,14.1,1111122 
NERRS,ioos:station:NOAA.NERRS:wkbfrwq:1,2015-12-14T03:45:00Z,30.4162,-87.8228,2.67,13.5,1111122 
NERRS,ioos:station:NOAA.NERRS:wkbfrwq:1,2015-12-14T04:45:00Z,30.4162,-87.8228,2.72,13.3,1111122 
NERRS,ioos:station:NOAA.NERRS:wkbfrwq:1,2015-12-14T05:45:00Z,30.4162,-87.8228,2.71,14.2,1111122 
NERRS,ioos:station:NOAA.NERRS:wkbfrwq:1,2015-12-14T06:45:00Z,30.4162,-87.8228,2.73,14.3,1111122 
NERRS,ioos:station:NOAA.NERRS:wkbfrwq:1,2015-12-14T07:45:00Z,30.4162,-87.8228,2.74,14.2,1111122 
NERRS,ioos:station:NOAA.NERRS:wkbfrwq:1,2015-12-14T08:45:00Z,30.4162,-87.8228,2.74,14.5,1111122 
NERRS,ioos:station:NOAA.NERRS:wkbfrwq:1,2015-12-14T09:45:00Z,30.4162,-87.8228,2.75,13.4,1111122 
NERRS,ioos:station:NOAA.NERRS:wkbfrwq:1,2015-12-14T11:45:00Z,30.4162,-87.8228,2.52,13.3,1111122 
NERRS,ioos:station:NOAA.NERRS:wkbfrwq:1,2015-12-14T14:45:00Z,30.4162,-87.8228,2.19,11.8,1111122 
NERRS,ioos:station:NOAA.NERRS:wkbfrwq:1,2015-12-14T15:45:00Z,30.4162,-87.8228,2.17,11.8,1111122 
NERRS,ioos:station:NOAA.NERRS:wkbfrwq:1,2015-12-14T16:45:00Z,30.4162,-87.8228,2.1,11.2,1111122 
NERRS,ioos:station:NOAA.NERRS:wkbfrwq:1,2015-12-14T17:45:00Z,30.4162,-87.8228,2.06,11.7,1111122 
NERRS,ioos:station:NOAA.NERRS:wkbfrwq:1,2015-12-14T18:45:00Z,30.4162,-87.8228,2.05,12.5,1111122 
NERRS,ioos:station:NOAA.NERRS:wkbfrwq:1,2015-12-14T19:45:00Z,30.4162,-87.8228,2.08,12.4,1111122 
NERRS,ioos:station:NOAA.NERRS:wkbfrwq:1,2015-12-14T20:45:00Z,30.4162,-87.8228,2.14,12.0,1111122 
NERRS,ioos:station:NOAA.NERRS:wkbfrwq:1,2015-12-14T21:45:00Z,30.4162,-87.8228,2.22,11.8,1111122 
NERRS,ioos:station:NOAA.NERRS:wkbfrwq:1,2015-12-14T22:45:00Z,30.4162,-87.8228,2.32,12.2,1111122 
NERRS,ioos:station:NOAA.NERRS:wkbfrwq:1,2015-12-14T23:45:00Z,30.4162,-87.8228,2.37,12.5,1111122 
NERRS,ioos:station:NOAA.NERRS:wkbfrwq:1,2015-12-15T00:45:00Z,30.4162,-87.8228,2.4,12.5,1111122 
NERRS,ioos:station:NOAA.NERRS:wkbfrwq:1,2015-12-15T01:45:00Z,30.4162,-87.8228,2.47,12.7,1111122 
NERRS,ioos:station:NOAA.NERRS:wkbfrwq:1,2015-12-15T02:45:00Z,30.4162,-87.8228,2.54,12.9,1111122 
NERRS,ioos:station:NOAA.NERRS:wkbfrwq:1,2015-12-15T03:45:00Z,30.4162,-87.8228,2.58,13.1,1111122 